HAZ2117 ZSHC-ZSAM

Flight info

Callsign HAZ2117
Flight time 1h 36m
Altitude 27600
Route UGAGO5E UGAGO A470 ENVEN ENVEN6W
Aircraft A320/M-SDE3FGHIRWY/LB1

Departure

Time 2026-04-27 14:00
Airport Hangzhou Xiaoshan International Airport (ZSHC)

Arrival

Time 2026-04-27 15:36
Airport Xiamen Gaoqi International Airport (ZSAM)
Time Latitude Longitude Altitude Speed Heading
2026-04-27 13:37 30.24121 120.42803 31 ft 0 kts 234°
2026-04-27 13:50 30.24125 120.42810 32 ft 3 kts 234°
2026-04-27 13:51 30.24138 120.42830 32 ft 3 kts 235°
2026-04-27 13:51 30.24146 120.42850 31 ft 3 kts 273°
2026-04-27 13:51 30.24140 120.42869 31 ft 3 kts 320°
2026-04-27 13:51 30.24122 120.42883 30 ft 3 kts 333°
2026-04-27 13:52 30.24119 120.42885 32 ft 0 kts 333°
2026-04-27 13:54 30.24127 120.42880 32 ft 7 kts 332°
2026-04-27 13:54 30.24193 120.42841 32 ft 11 kts 333°
2026-04-27 13:54 30.24262 120.42800 30 ft 11 kts 334°
2026-04-27 13:54 30.24324 120.42805 32 ft 8 kts
2026-04-27 13:55 30.24370 120.42785 31 ft 8 kts 313°
2026-04-27 13:55 30.24351 120.42687 32 ft 16 kts 243°
2026-04-27 13:55 30.24303 120.42577 32 ft 15 kts 242°
2026-04-27 13:55 30.24256 120.42472 32 ft 14 kts 243°
2026-04-27 13:56 30.24213 120.42374 31 ft 13 kts 241°
2026-04-27 13:56 30.24168 120.42275 31 ft 18 kts 243°
2026-04-27 13:56 30.24133 120.42153 32 ft 12 kts 294°
2026-04-27 13:56 30.24178 120.42077 32 ft 14 kts 265°
2026-04-27 13:57 30.24131 120.41966 32 ft 16 kts 243°
2026-04-27 13:57 30.24077 120.41844 32 ft 17 kts 243°
2026-04-27 13:57 30.24016 120.41705 32 ft 23 kts 243°
2026-04-27 13:57 30.23935 120.41524 32 ft 27 kts 243°
2026-04-27 13:58 30.23846 120.41327 32 ft 28 kts 243°
2026-04-27 13:58 30.23761 120.41128 32 ft 27 kts 243°
2026-04-27 13:58 30.23694 120.40983 32 ft 11 kts 243°
2026-04-27 13:58 30.23701 120.40920 33 ft 8 kts 309°
2026-04-27 13:59 30.23769 120.40877 34 ft 11 kts 334°
2026-04-27 13:59 30.23832 120.40872 34 ft 8 kts 29°
2026-04-27 13:59 30.23852 120.40903 34 ft 0 kts 62°
2026-04-27 13:59 30.23855 120.40909 34 ft 7 kts 62°
2026-04-27 14:00 30.23994 120.41223 32 ft 81 kts 63°
2026-04-27 14:00 30.24347 120.42021 33 ft 139 kts 63°
2026-04-27 14:00 30.24849 120.43151 268 ft 163 kts 62°
2026-04-27 14:00 30.25351 120.44287 1031 ft 157 kts 63°
2026-04-27 14:01 30.25850 120.45412 1685 ft 157 kts 64°
2026-04-27 14:01 30.26349 120.46537 2269 ft 158 kts 62°
2026-04-27 14:01 30.26854 120.47671 2824 ft 159 kts 62°
2026-04-27 14:01 30.27363 120.48820 3313 ft 166 kts 62°
2026-04-27 14:02 30.27916 120.50067 3577 ft 187 kts 62°
2026-04-27 14:02 30.28545 120.51485 3816 ft 209 kts 62°
2026-04-27 14:02 30.29226 120.53026 4252 ft 219 kts 62°
2026-04-27 14:02 30.29925 120.54609 4830 ft 222 kts 63°
2026-04-27 14:03 30.30633 120.56211 5405 ft 225 kts 62°
2026-04-27 14:03 30.31353 120.57836 5978 ft 228 kts 63°
2026-04-27 14:03 30.32085 120.59485 6534 ft 231 kts 62°
2026-04-27 14:03 30.33102 120.60925 7075 ft 234 kts 36°
2026-04-27 14:04 30.34576 120.61712 7610 ft 236 kts
2026-04-27 14:04 30.36202 120.61671 8154 ft 236 kts 343°
2026-04-27 14:04 30.37648 120.60805 8696 ft 236 kts 316°
2026-04-27 14:04 30.38617 120.59299 9257 ft 234 kts 290°
2026-04-27 14:05 30.38924 120.57468 9813 ft 234 kts 266°
2026-04-27 14:05 30.38515 120.55593 10051 ft 253 kts 243°
2026-04-27 14:05 30.37663 120.53705 10305 ft 276 kts 242°
2026-04-27 14:05 30.36731 120.51651 10557 ft 300 kts 242°
2026-04-27 14:06 30.35724 120.49424 10781 ft 323 kts 243°
2026-04-27 14:06 30.34650 120.47036 10971 ft 345 kts 243°
2026-04-27 14:06 30.33536 120.44536 11516 ft 352 kts 243°
2026-04-27 14:06 30.32416 120.42002 12265 ft 354 kts 243°
2026-04-27 14:07 30.31288 120.39448 12953 ft 359 kts 243°
2026-04-27 14:07 30.30147 120.36871 13651 ft 361 kts 243°
2026-04-27 14:07 30.28999 120.34280 14294 ft 363 kts 243°
2026-04-27 14:07 30.27841 120.31671 14884 ft 366 kts 243°
2026-04-27 14:08 30.26672 120.29041 15448 ft 369 kts 244°
2026-04-27 14:08 30.25493 120.26390 15996 ft 372 kts 244°
2026-04-27 14:08 30.24304 120.23713 16524 ft 376 kts 244°
2026-04-27 14:08 30.23103 120.21013 17059 ft 379 kts 244°
2026-04-27 14:09 30.21893 120.18292 17575 ft 382 kts 244°
2026-04-27 14:09 30.20675 120.15548 18090 ft 385 kts 244°
2026-04-27 14:09 30.19448 120.12783 18524 ft 388 kts 244°
2026-04-27 14:09 30.18207 120.09999 18955 ft 391 kts 244°
2026-04-27 14:10 30.16955 120.07200 19396 ft 393 kts 244°
2026-04-27 14:10 30.15689 120.04386 19823 ft 396 kts 244°
2026-04-27 14:10 30.14414 120.01556 20244 ft 398 kts 244°
2026-04-27 14:10 30.13132 119.98709 20661 ft 401 kts 244°
2026-04-27 14:11 30.11843 119.95843 21070 ft 403 kts 244°
2026-04-27 14:11 30.10547 119.92955 21491 ft 406 kts 244°
2026-04-27 14:11 30.09242 119.90052 21889 ft 409 kts 244°
2026-04-27 14:11 30.07927 119.87131 22280 ft 411 kts 244°
2026-04-27 14:12 30.06607 119.84193 22659 ft 414 kts 244°
2026-04-27 14:12 30.05240 119.81262 23029 ft 417 kts 240°
2026-04-27 14:12 30.03483 119.78571 23350 ft 423 kts 230°
2026-04-27 14:12 30.01288 119.76273 23668 ft 430 kts 220°
2026-04-27 14:13 29.98761 119.74466 23963 ft 437 kts 211°
2026-04-27 14:13 29.96060 119.72832 24273 ft 439 kts 211°
2026-04-27 14:13 29.93348 119.71192 24589 ft 441 kts 212°
2026-04-27 14:13 29.90623 119.69547 24908 ft 443 kts 212°
2026-04-27 14:14 29.87859 119.67951 25209 ft 447 kts 207°
2026-04-27 14:14 29.84895 119.66788 25502 ft 455 kts 198°
2026-04-27 14:14 29.81748 119.66195 25770 ft 463 kts 188°
2026-04-27 14:14 29.78521 119.65975 26042 ft 466 kts 188°
2026-04-27 14:15 29.75281 119.65759 26328 ft 468 kts 188°
2026-04-27 14:15 29.72021 119.65558 26607 ft 470 kts 187°
2026-04-27 14:15 29.68747 119.65374 26887 ft 472 kts 187°
2026-04-27 14:15 29.65459 119.65197 27187 ft 474 kts 187°
2026-04-27 14:16 29.62161 119.65021 27427 ft 477 kts 187°
2026-04-27 14:16 29.58826 119.64881 27543 ft 483 kts 186°
2026-04-27 14:16 29.55444 119.64784 27560 ft 489 kts 186°
2026-04-27 14:16 29.52034 119.64691 27557 ft 491 kts 186°
2026-04-27 14:17 29.48624 119.64547 27555 ft 491 kts 187°
2026-04-27 14:17 29.45211 119.64356 27553 ft 490 kts 188°
2026-04-27 14:17 29.41809 119.64130 27555 ft 490 kts 188°
2026-04-27 14:17 29.38404 119.63887 27544 ft 490 kts 188°
2026-04-27 14:18 29.34997 119.63647 27547 ft 490 kts 188°
2026-04-27 14:18 29.31590 119.63419 27545 ft 491 kts 187°
2026-04-27 14:18 29.28176 119.63204 27548 ft 492 kts 187°
2026-04-27 14:18 29.24759 119.62998 27547 ft 492 kts 187°
2026-04-27 14:19 29.21342 119.62797 27537 ft 491 kts 187°
2026-04-27 14:19 29.17927 119.62596 27540 ft 491 kts 187°
2026-04-27 14:19 29.14515 119.62392 27533 ft 491 kts 187°
2026-04-27 14:19 29.11100 119.62186 27534 ft 491 kts 187°
2026-04-27 14:20 29.07690 119.61977 27526 ft 491 kts 187°
2026-04-27 14:20 29.04278 119.61764 27527 ft 491 kts 187°
2026-04-27 14:20 29.00869 119.61550 27528 ft 491 kts 187°
2026-04-27 14:20 28.97457 119.61339 27531 ft 491 kts 187°
2026-04-27 14:21 28.94045 119.61127 27532 ft 491 kts 187°
2026-04-27 14:21 28.90632 119.60915 27538 ft 491 kts 187°
2026-04-27 14:21 28.87218 119.60700 27542 ft 491 kts 187°
2026-04-27 14:21 28.83808 119.60487 27530 ft 491 kts 187°
2026-04-27 14:22 28.80390 119.60276 27534 ft 492 kts 187°
2026-04-27 14:22 28.76977 119.60064 27543 ft 491 kts 187°
2026-04-27 14:22 28.73565 119.59850 27545 ft 491 kts 187°
2026-04-27 14:22 28.70150 119.59636 27544 ft 492 kts 187°
2026-04-27 14:23 28.66734 119.59423 27549 ft 491 kts 187°
2026-04-27 14:23 28.63321 119.59211 27549 ft 491 kts 187°
2026-04-27 14:23 28.61060 119.59071 27553 ft 491 kts 187°
2026-04-27 14:23 28.56493 119.58787 27550 ft 491 kts 187°
2026-04-27 14:24 28.53081 119.58577 27555 ft 491 kts 187°
2026-04-27 14:24 28.50820 119.58438 27554 ft 491 kts 187°
2026-04-27 14:24 28.47410 119.58231 27561 ft 491 kts 187°
2026-04-27 14:24 28.44000 119.58025 27566 ft 491 kts 186°
2026-04-27 14:25 28.40590 119.57820 27567 ft 491 kts 186°
2026-04-27 14:25 28.36026 119.57551 27571 ft 491 kts 186°
2026-04-27 14:25 28.33769 119.57418 27573 ft 491 kts 186°
2026-04-27 14:25 28.29255 119.57153 27561 ft 490 kts 186°
2026-04-27 14:26 28.26954 119.57016 27562 ft 490 kts 186°
2026-04-27 14:26 28.23551 119.56809 27569 ft 490 kts 186°
2026-04-27 14:26 28.19040 119.56533 27570 ft 490 kts 186°
2026-04-27 14:26 28.16742 119.56396 27581 ft 490 kts 186°
2026-04-27 14:27 28.13341 119.56195 27585 ft 490 kts 186°
2026-04-27 14:27 28.09936 119.55998 27585 ft 490 kts 186°
2026-04-27 14:27 28.06526 119.55862 27581 ft 490 kts 184°
2026-04-27 14:27 28.03112 119.55814 27586 ft 491 kts 183°
2026-04-27 14:28 27.99694 119.55824 27591 ft 491 kts 183°
2026-04-27 14:28 27.96277 119.55855 27599 ft 491 kts 182°
2026-04-27 14:28 27.92907 119.55879 27599 ft 491 kts 183°
2026-04-27 14:28 27.89490 119.55888 27599 ft 491 kts 183°
2026-04-27 14:29 27.86077 119.55881 27605 ft 491 kts 183°
2026-04-27 14:29 27.82659 119.55864 27604 ft 491 kts 184°
2026-04-27 14:29 27.79243 119.55837 27606 ft 491 kts 184°
2026-04-27 14:29 27.75827 119.55807 27612 ft 491 kts 184°
2026-04-27 14:30 27.72413 119.55779 27615 ft 491 kts 183°
2026-04-27 14:30 27.68997 119.55758 27614 ft 491 kts 183°
2026-04-27 14:30 27.65581 119.55742 27617 ft 491 kts 183°
2026-04-27 14:30 27.62165 119.55723 27615 ft 491 kts 183°
2026-04-27 14:31 27.58746 119.55705 27620 ft 491 kts 183°
2026-04-27 14:31 27.55331 119.55686 27607 ft 491 kts 183°
2026-04-27 14:31 27.51912 119.55665 27610 ft 491 kts 183°
2026-04-27 14:31 27.48498 119.55646 27612 ft 491 kts 183°
2026-04-27 14:32 27.45080 119.55625 27613 ft 491 kts 183°
2026-04-27 14:32 27.41661 119.55603 27617 ft 491 kts 183°
2026-04-27 14:32 27.38240 119.55589 27618 ft 491 kts 183°
2026-04-27 14:32 27.34821 119.55583 27620 ft 491 kts 183°
2026-04-27 14:33 27.31401 119.55583 27622 ft 492 kts 183°
2026-04-27 14:33 27.27984 119.55581 27612 ft 492 kts 183°
2026-04-27 14:33 27.24564 119.55579 27610 ft 491 kts 183°
2026-04-27 14:33 27.21141 119.55567 27612 ft 491 kts 183°
2026-04-27 14:34 27.17726 119.55543 27613 ft 491 kts 183°
2026-04-27 14:34 27.14310 119.55514 27615 ft 491 kts 183°
2026-04-27 14:34 27.10892 119.55486 27614 ft 491 kts 183°
2026-04-27 14:34 27.07472 119.55461 27613 ft 491 kts 183°
2026-04-27 14:35 27.04057 119.55440 27609 ft 491 kts 183°
2026-04-27 14:35 27.00635 119.55420 27605 ft 491 kts 183°
2026-04-27 14:35 26.97218 119.55401 27607 ft 491 kts 183°
2026-04-27 14:35 26.93796 119.55379 27605 ft 492 kts 183°
2026-04-27 14:36 26.90379 119.55355 27603 ft 492 kts 183°
2026-04-27 14:36 26.86955 119.55329 27605 ft 492 kts 183°
2026-04-27 14:36 26.83536 119.55307 27609 ft 492 kts 183°
2026-04-27 14:36 26.80113 119.55289 27602 ft 492 kts 183°
2026-04-27 14:37 26.76689 119.55272 27593 ft 492 kts 183°
2026-04-27 14:37 26.73268 119.55255 27595 ft 492 kts 183°
2026-04-27 14:37 26.69846 119.55236 27599 ft 492 kts 183°
2026-04-27 14:37 26.66422 119.55215 27594 ft 492 kts 183°
2026-04-27 14:38 26.62996 119.55191 27601 ft 492 kts 183°
2026-04-27 14:38 26.59576 119.55164 27601 ft 492 kts 183°
2026-04-27 14:38 26.56153 119.55136 27598 ft 492 kts 183°
2026-04-27 14:38 26.52773 119.55111 27599 ft 492 kts 183°
2026-04-27 14:39 26.49345 119.55089 27588 ft 492 kts 183°
2026-04-27 14:39 26.45922 119.55068 27588 ft 492 kts 183°
2026-04-27 14:39 26.42495 119.55047 27597 ft 492 kts 183°
2026-04-27 14:39 26.39069 119.55025 27596 ft 492 kts 183°
2026-04-27 14:40 26.35644 119.55002 27597 ft 492 kts 183°
2026-04-27 14:40 26.32218 119.54981 27599 ft 492 kts 183°
2026-04-27 14:40 26.28796 119.54960 27593 ft 492 kts 183°
2026-04-27 14:40 26.25370 119.54937 27595 ft 492 kts 184°
2026-04-27 14:41 26.21972 119.54633 27585 ft 488 kts 192°
2026-04-27 14:41 26.18683 119.53766 27593 ft 485 kts 200°
2026-04-27 14:41 26.15462 119.52665 27593 ft 485 kts 200°
2026-04-27 14:41 26.12238 119.51561 27592 ft 484 kts 200°
2026-04-27 14:42 26.09018 119.50457 27592 ft 485 kts 200°
2026-04-27 14:42 26.05795 119.49356 27593 ft 485 kts 200°
2026-04-27 14:42 26.02568 119.48256 27593 ft 485 kts 200°
2026-04-27 14:42 25.99347 119.47161 27594 ft 485 kts 200°
2026-04-27 14:43 25.96121 119.46070 27581 ft 485 kts 200°
2026-04-27 14:43 25.92891 119.44978 27483 ft 485 kts 200°
2026-04-27 14:43 25.89668 119.43887 27109 ft 485 kts 200°
2026-04-27 14:43 25.86431 119.42788 26742 ft 486 kts 200°
2026-04-27 14:44 25.83197 119.41688 26384 ft 487 kts 200°
2026-04-27 14:44 25.79957 119.40586 26020 ft 487 kts 200°
2026-04-27 14:44 25.76777 119.39298 25642 ft 485 kts 207°
2026-04-27 14:45 25.69156 119.32750 24509 ft 479 kts 229°
2026-04-27 14:45 25.66871 119.30060 24132 ft 479 kts 229°
2026-04-27 14:45 25.64596 119.27394 23756 ft 472 kts 228°
2026-04-27 14:46 25.62355 119.24772 23409 ft 466 kts 228°
2026-04-27 14:46 25.60133 119.22172 23016 ft 463 kts 228°
2026-04-27 14:46 25.57927 119.19589 22632 ft 460 kts 228°
2026-04-27 14:46 25.55735 119.17026 22251 ft 457 kts 228°
2026-04-27 14:47 25.53558 119.14476 21871 ft 454 kts 228°
2026-04-27 14:47 25.51397 119.11946 21490 ft 451 kts 228°
2026-04-27 14:47 25.49246 119.09432 21119 ft 448 kts 228°
2026-04-27 14:47 25.47109 119.06938 20761 ft 445 kts 228°
2026-04-27 14:48 25.44983 119.04458 20404 ft 443 kts 228°
2026-04-27 14:48 25.40772 118.99539 19703 ft 438 kts 227°
2026-04-27 14:48 25.38686 118.97102 19358 ft 435 kts 227°
2026-04-27 14:49 25.36609 118.94683 19012 ft 432 kts 227°
2026-04-27 14:49 25.34540 118.92281 18674 ft 430 kts 227°
2026-04-27 14:49 25.32495 118.89882 18346 ft 428 kts 228°
2026-04-27 14:49 25.30485 118.87469 17957 ft 425 kts 229°
2026-04-27 14:50 25.28505 118.85054 17574 ft 423 kts 229°
2026-04-27 14:50 25.26542 118.82648 17191 ft 420 kts 229°
2026-04-27 14:50 25.24585 118.80258 16814 ft 418 kts 228°
2026-04-27 14:50 25.22632 118.77888 16435 ft 416 kts 228°
2026-04-27 14:51 25.20715 118.75567 16081 ft 414 kts 228°
2026-04-27 14:51 25.18778 118.73224 15703 ft 413 kts 228°
2026-04-27 14:51 25.16846 118.70890 15356 ft 411 kts 228°
2026-04-27 14:51 25.14925 118.68574 15004 ft 408 kts 228°
2026-04-27 14:52 25.13013 118.66271 14661 ft 406 kts 227°
2026-04-27 14:52 25.11110 118.63985 14315 ft 403 kts 227°
2026-04-27 14:52 25.09218 118.61712 13974 ft 401 kts 227°
2026-04-27 14:52 25.07321 118.59466 13602 ft 399 kts 226°
2026-04-27 14:53 25.05407 118.57251 13253 ft 398 kts 226°
2026-04-27 14:53 25.03480 118.55053 12999 ft 398 kts 225°
2026-04-27 14:53 25.01554 118.52866 12752 ft 397 kts 225°
2026-04-27 14:53 24.99632 118.50683 12498 ft 397 kts 225°
2026-04-27 14:54 24.97715 118.48496 12249 ft 396 kts 225°
2026-04-27 14:54 24.95808 118.46312 12004 ft 395 kts 226°
2026-04-27 14:54 24.93903 118.44126 11761 ft 395 kts 226°
2026-04-27 14:54 24.92000 118.41944 11525 ft 394 kts 225°
2026-04-27 14:55 24.90122 118.39793 11279 ft 382 kts 225°
2026-04-27 14:55 24.88316 118.37723 11033 ft 367 kts 225°
2026-04-27 14:55 24.86577 118.35732 10806 ft 354 kts 225°
2026-04-27 14:55 24.84901 118.33812 10572 ft 342 kts 225°
2026-04-27 14:56 24.83277 118.31952 10343 ft 331 kts 225°
2026-04-27 14:56 24.81703 118.30149 10110 ft 322 kts 225°
2026-04-27 14:56 24.80171 118.28396 9904 ft 313 kts 225°
2026-04-27 14:56 24.78691 118.26701 9815 ft 300 kts 225°
2026-04-27 14:57 24.77271 118.25077 9697 ft 291 kts 225°
2026-04-27 14:57 24.75875 118.23483 9444 ft 288 kts 225°
2026-04-27 14:57 24.74492 118.21904 9192 ft 286 kts 225°
2026-04-27 14:57 24.73111 118.20329 8937 ft 286 kts 225°
2026-04-27 14:58 24.71746 118.18778 8739 ft 278 kts 225°
2026-04-27 14:58 24.70422 118.17269 8547 ft 270 kts 225°
2026-04-27 14:58 24.69139 118.15807 8344 ft 262 kts 225°
2026-04-27 14:58 24.67892 118.14385 8153 ft 255 kts 225°
2026-04-27 14:59 24.66692 118.13015 7960 ft 250 kts 225°
2026-04-27 14:59 24.65473 118.11625 7765 ft 248 kts 225°
2026-04-27 14:59 24.64287 118.10274 7580 ft 243 kts 225°
2026-04-27 14:59 24.63123 118.08950 7386 ft 239 kts 225°
2026-04-27 15:00 24.61991 118.07662 7174 ft 237 kts 225°
2026-04-27 15:00 24.60847 118.06365 6967 ft 236 kts 225°
2026-04-27 15:00 24.59701 118.05069 6756 ft 237 kts 225°
2026-04-27 15:00 24.58553 118.03772 6549 ft 237 kts 225°
2026-04-27 15:01 24.57408 118.02471 6330 ft 237 kts 225°
2026-04-27 15:01 24.56270 118.01170 6108 ft 236 kts 226°
2026-04-27 15:01 24.55159 117.99851 5884 ft 235 kts 226°
2026-04-27 15:01 24.54067 117.98528 5657 ft 233 kts 227°
2026-04-27 15:02 24.52983 117.97208 5437 ft 232 kts 227°
2026-04-27 15:02 24.51905 117.95899 5212 ft 231 kts 227°
2026-04-27 15:02 24.50831 117.94598 5000 ft 229 kts 227°
2026-04-27 15:02 24.49761 117.93302 4783 ft 228 kts 226°
2026-04-27 15:03 24.48704 117.92021 4584 ft 224 kts 226°
2026-04-27 15:03 24.47638 117.90796 4384 ft 219 kts 217°
2026-04-27 15:03 24.46284 117.90126 4185 ft 213 kts 187°
2026-04-27 15:03 24.44842 117.90272 4000 ft 207 kts 159°
2026-04-27 15:04 24.43641 117.91099 3820 ft 203 kts 142°
2026-04-27 15:04 24.42543 117.92043 3675 ft 196 kts 142°
2026-04-27 15:04 24.41635 117.93096 3503 ft 190 kts 115°
2026-04-27 15:04 24.41521 117.94512 3332 ft 192 kts 74°
2026-04-27 15:05 24.42229 117.95752 3154 ft 195 kts 53°
2026-04-27 15:05 24.43073 117.96916 2985 ft 195 kts 53°
2026-04-27 15:05 24.43911 117.98081 2810 ft 194 kts 53°
2026-04-27 15:05 24.44743 117.99242 2723 ft 194 kts 53°
2026-04-27 15:06 24.45565 118.00389 2518 ft 188 kts 53°
2026-04-27 15:06 24.46365 118.01507 2299 ft 185 kts 53°
2026-04-27 15:06 24.47149 118.02602 2058 ft 178 kts 53°
2026-04-27 15:06 24.47896 118.03646 1842 ft 168 kts 53°
2026-04-27 15:07 24.48586 118.04609 1639 ft 154 kts 53°
2026-04-27 15:07 24.49230 118.05511 1424 ft 147 kts 53°
2026-04-27 15:07 24.49856 118.06386 1244 ft 145 kts 53°
2026-04-27 15:07 24.50479 118.07257 1046 ft 145 kts 52°
2026-04-27 15:08 24.51101 118.08130 858 ft 145 kts 52°
2026-04-27 15:08 24.51717 118.08993 678 ft 143 kts 50°
2026-04-27 15:08 24.52329 118.09844 506 ft 141 kts 52°
2026-04-27 15:08 24.52925 118.10695 303 ft 140 kts 50°
2026-04-27 15:09 24.53526 118.11528 115 ft 139 kts 51°
2026-04-27 15:09 24.54087 118.12314 65 ft 125 kts 51°
2026-04-27 15:09 24.54676 118.13128 593 ft 145 kts 50°
2026-04-27 15:09 24.55366 118.14058 1153 ft 162 kts 51°
2026-04-27 15:10 24.56178 118.14998 1576 ft 181 kts 32°
2026-04-27 15:10 24.57430 118.15325 1999 ft 193 kts 351°
2026-04-27 15:10 24.58662 118.14804 2571 ft 194 kts 329°
2026-04-27 15:10 24.59746 118.13920 3179 ft 195 kts 317°
2026-04-27 15:11 24.60754 118.12909 3747 ft 199 kts 316°
2026-04-27 15:11 24.61764 118.11860 3890 ft 199 kts 315°
2026-04-27 15:11 24.62767 118.10810 3914 ft 198 kts 314°
2026-04-27 15:11 24.63504 118.09559 3912 ft 196 kts 285°
2026-04-27 15:12 24.63564 118.08093 3918 ft 193 kts 254°
2026-04-27 15:12 24.62933 118.06822 3922 ft 190 kts 225°
2026-04-27 15:12 24.61983 118.05807 3913 ft 191 kts 222°
2026-04-27 15:12 24.61028 118.04794 3917 ft 191 kts 223°
2026-04-27 15:13 24.60074 118.03779 3920 ft 191 kts 223°
2026-04-27 15:13 24.59121 118.02765 3912 ft 191 kts 223°
2026-04-27 15:13 24.58168 118.01750 3915 ft 191 kts 222°
2026-04-27 15:13 24.57215 118.00735 3923 ft 191 kts 222°
2026-04-27 15:14 24.56263 117.99718 3917 ft 191 kts 223°
2026-04-27 15:14 24.55312 117.98702 3921 ft 191 kts 223°
2026-04-27 15:14 24.54358 117.97684 3912 ft 191 kts 223°
2026-04-27 15:14 24.53558 117.96833 3916 ft 191 kts 223°
2026-04-27 15:15 24.52604 117.95818 3914 ft 191 kts 223°
2026-04-27 15:15 24.51654 117.94804 3911 ft 191 kts 222°
2026-04-27 15:15 24.50699 117.93786 3908 ft 191 kts 223°
2026-04-27 15:15 24.49745 117.92770 3869 ft 192 kts 222°
2026-04-27 15:16 24.48653 117.91995 3619 ft 186 kts 193°
2026-04-27 15:16 24.47384 117.91891 3377 ft 182 kts 172°
2026-04-27 15:16 24.46249 117.92424 3197 ft 177 kts 147°
2026-04-27 15:16 24.45305 117.93283 3048 ft 177 kts 137°
2026-04-27 15:17 24.44447 117.94245 2895 ft 177 kts 129°
2026-04-27 15:17 24.43861 117.95428 2783 ft 178 kts 109°
2026-04-27 15:17 24.43706 117.96776 2673 ft 180 kts 87°
2026-04-27 15:17 24.44021 117.98104 2532 ft 182 kts 65°
2026-04-27 15:18 24.44740 117.99244 2421 ft 183 kts 53°
2026-04-27 15:18 24.45535 118.00351 2307 ft 193 kts 53°
2026-04-27 15:18 24.46340 118.01472 2216 ft 178 kts 53°
2026-04-27 15:18 24.47066 118.02485 2077 ft 160 kts 53°
2026-04-27 15:19 24.47728 118.03411 1871 ft 150 kts 53°
2026-04-27 15:19 24.48365 118.04301 1692 ft 147 kts 53°
2026-04-27 15:19 24.48990 118.05176 1500 ft 145 kts 53°
2026-04-27 15:19 24.49608 118.06040 1315 ft 144 kts 53°
2026-04-27 15:20 24.50224 118.06901 1126 ft 144 kts 52°
2026-04-27 15:20 24.50845 118.07769 938 ft 144 kts 52°
2026-04-27 15:20 24.51457 118.08637 720 ft 142 kts 52°
2026-04-27 15:20 24.52064 118.09489 549 ft 141 kts 50°
2026-04-27 15:21 24.52671 118.10326 372 ft 140 kts 51°
2026-04-27 15:21 24.53265 118.11164 199 ft 138 kts 50°
2026-04-27 15:21 24.53848 118.11981 72 ft 127 kts 51°
2026-04-27 15:21 24.54386 118.12750 304 ft 133 kts 51°
2026-04-27 15:22 24.55030 118.13481 1035 ft 134 kts 27°
2026-04-27 15:22 24.55938 118.13536 1459 ft 141 kts 342°
2026-04-27 15:22 24.56803 118.13048 1455 ft 139 kts 308°
2026-04-27 15:22 24.57029 118.12088 1474 ft 135 kts 250°
2026-04-27 15:23 24.56610 118.11151 1556 ft 139 kts 236°
2026-04-27 15:23 24.56067 118.10263 1536 ft 139 kts 234°
2026-04-27 15:23 24.55512 118.09389 1492 ft 137 kts 234°
2026-04-27 15:23 24.54955 118.08545 1445 ft 136 kts 232°
2026-04-27 15:24 24.54377 118.07716 1377 ft 137 kts 231°
2026-04-27 15:24 24.53787 118.06892 1214 ft 137 kts 230°
2026-04-27 15:24 24.52998 118.06330 1052 ft 139 kts 190°
2026-04-27 15:24 24.52076 118.06528 927 ft 139 kts 144°
2026-04-27 15:25 24.51438 118.07317 943 ft 142 kts 116°
2026-04-27 15:25 24.51282 118.08374 924 ft 143 kts 79°
2026-04-27 15:25 24.51788 118.09298 766 ft 145 kts 45°
2026-04-27 15:25 24.52504 118.10077 485 ft 140 kts 49°
2026-04-27 15:26 24.53083 118.10917 250 ft 138 kts 51°
2026-04-27 15:26 24.53678 118.11741 62 ft 134 kts 51°
2026-04-27 15:26 24.54245 118.12537 240 ft 145 kts 50°
2026-04-27 15:26 24.54922 118.13452 821 ft 162 kts 51°
2026-04-27 15:27 24.55659 118.14450 1474 ft 174 kts 52°
2026-04-27 15:27 24.56432 118.15502 1835 ft 187 kts 52°
2026-04-27 15:27 24.57276 118.16647 2336 ft 195 kts 47°
2026-04-27 15:27 24.58445 118.17398 2879 ft 201 kts 12°
2026-04-27 15:28 24.59810 118.17275 2990 ft 198 kts 334°
2026-04-27 15:28 24.60917 118.16404 3005 ft 196 kts 317°
2026-04-27 15:28 24.61876 118.15356 3008 ft 194 kts 301°
2026-04-27 15:28 24.62205 118.13969 3008 ft 189 kts 261°
2026-04-27 15:29 24.61684 118.12678 3013 ft 186 kts 231°
2026-04-27 15:29 24.60836 118.11599 3011 ft 187 kts 226°
2026-04-27 15:29 24.59950 118.10561 3013 ft 186 kts 225°
2026-04-27 15:29 24.59087 118.09499 3010 ft 186 kts 229°
2026-04-27 15:30 24.58269 118.08389 2940 ft 187 kts 230°
2026-04-27 15:30 24.57462 118.07276 2844 ft 186 kts 230°
2026-04-27 15:30 24.56656 118.06163 2748 ft 186 kts 230°
2026-04-27 15:30 24.55851 118.05041 2649 ft 187 kts 230°
2026-04-27 15:31 24.55048 118.03918 2545 ft 187 kts 230°
2026-04-27 15:31 24.54245 118.02798 2449 ft 186 kts 230°
2026-04-27 15:31 24.53442 118.01680 2351 ft 186 kts 230°
2026-04-27 15:31 24.52637 118.00561 2251 ft 186 kts 230°
2026-04-27 15:32 24.51835 117.99444 2156 ft 186 kts 230°
2026-04-27 15:32 24.50907 117.98479 2077 ft 184 kts 204°
2026-04-27 15:32 24.49663 117.98344 2004 ft 183 kts 163°
2026-04-27 15:32 24.48553 117.99013 2007 ft 184 kts 140°
2026-04-27 15:33 24.47749 118.00120 2013 ft 193 kts 118°
2026-04-27 15:33 24.47404 118.01463 1992 ft 173 kts 95°
2026-04-27 15:33 24.47521 118.02689 1939 ft 155 kts 75°
2026-04-27 15:33 24.47963 118.03727 1776 ft 148 kts 57°
2026-04-27 15:34 24.48587 118.04612 1607 ft 145 kts 53°
2026-04-27 15:34 24.49206 118.05477 1425 ft 143 kts 53°
2026-04-27 15:34 24.49818 118.06333 1250 ft 142 kts 52°
2026-04-27 15:34 24.50432 118.07192 1058 ft 144 kts 52°
2026-04-27 15:35 24.51049 118.08054 869 ft 143 kts 51°
2026-04-27 15:35 24.51659 118.08914 669 ft 142 kts 52°
2026-04-27 15:35 24.52253 118.09762 489 ft 139 kts 51°
2026-04-27 15:35 24.52859 118.10588 323 ft 138 kts 51°
2026-04-27 15:36 24.53448 118.11419 149 ft 138 kts 51°
2026-04-27 15:36 24.54011 118.12214 60 ft 121 kts 52°
2026-04-27 15:36 24.54442 118.12809 53 ft 75 kts 52°
2026-04-27 15:36 24.54656 118.13110 51 ft 31 kts 55°
2026-04-27 15:37 24.54709 118.13293 51 ft 16 kts 81°
2026-04-27 15:37 24.54725 118.13418 50 ft 17 kts 81°
2026-04-27 15:37 24.54755 118.13528 48 ft 15 kts 64°
2026-04-27 15:37 24.54815 118.13618 48 ft 12 kts 48°
2026-04-27 15:38 24.54867 118.13691 48 ft 12 kts 52°
2026-04-27 15:38 24.54848 118.13756 48 ft 15 kts 139°
2026-04-27 15:38 24.54742 118.13848 48 ft 18 kts 142°
2026-04-27 15:38 24.54676 118.13910 48 ft 8 kts 128°
2026-04-27 15:39 24.54685 118.13963 45 ft 7 kts 51°
2026-04-27 15:39 24.54706 118.13992 47 ft 3 kts 52°
2026-04-27 15:39 24.54713 118.14002 45 ft 0 kts 52°